Starlink 31289

operational
NORAD ID: 59173 Int'l Des: 2024-044 Owner: SPXS Country: US Constellation: starlink
LEOCIRCULAR

Über Starlink 31289

Beschreibung wird geladen...

Live-Position

3D-Globus wird geladen...

Nächste Überflüge

Höhenverlauf

Altitude vs Time

uPlot chart will show altitude changes over time

Zweizeiliger Elementsatz

1 59173U 24044X 26071.09888104 -.00001870 00000-0 -58436-4 0 9991
2 59173 43.0027 93.4522 0000496 300.5471 59.5332 15.27585878113960
Epoch: 12. März 2026 • Age: 17 hours

Aktueller Status

Höhe 487.7 km
Geschwindigkeit 7.62 km/s
Subsatellitenpunkt -20.71°S, 137.92°W
Startdatum 4. März 2024
Alter 2 years
Typ internet

Technische Details

Klassifizierung Payload
Masse 730.00 kg
Trockenmasse 700.00 kg
Gesamtmasse 730.00 kg
Länge 0.30 m
Durchmesser 4.10 m
Spannweite 29.00 m
Form Box + pan
Hersteller SPXS
Bus-Typ Starlink V2M
Phasenstatus In Orbit
Besitzer/Staat SPXS/US

Große Konstellationen

Loading constellations...